{"data":{"norad_id":58322,"intl_designator":"2023-174BU","name":"FLOCK 4Q-9","alt_names":[],"object_type":"PAYLOAD","status":"ACTIVE","operator":null,"country":"US","launch_date":"2023-11-11","launch_site_code":"AFWTR","launch_vehicle":null,"mission":null,"orbit_class":"UNKNOWN","rcs_meters":null,"size_class":null,"mass_kg":null,"dimensions":null,"purposes":["earth_obs"],"wikipedia_slug":null,"has_3d_model":false,"image_url":null,"decayed_at":null,"tle_current":{"epoch":"2026-05-25T05:28:37.015680Z","epoch_age_seconds":62181,"freshness":"FRESH","line1":"1 58322U 23174BU  26145.22820620  .00027991  00000+0  52567-3 0  9992","line2":"2 58322  97.3864 233.2051 0006413 204.8884 155.2058 15.48553346142033","mean_motion":15.48553346,"eccentricity":0.0006413,"inclination_deg":97.3864,"raan_deg":233.2051,"arg_perigee_deg":204.8884,"mean_anomaly_deg":155.2058,"bstar":0.00052567,"rev_number":14203,"period_min":92.990015727879,"perigee_km":416.59697891312,"apogee_km":425.31749718284,"semimajor_km":6799.094238048,"source":"CELESTRAK","updated_at":"2026-05-25T13:38:13.301315Z"}}}